Syracuse, NY

7:25 AM EST on February 27, 2017 (GMT -0500)
Syracuse Hancock International

Weather History for KSYR - September, 2014

Change the Weather History Date:

Friday, September 19, 2014

  Actual Average Record
Temperature  
Mean Temperature 51 °F 61 °F  
Max Temperature 64 °F 71 °F 89 °F (1955)
Min Temperature 37 °F 51 °F 34 °F (1943)
Degree Days  
Heating Degree Days 14 5  
Month to date heating degree days 78 59  
Since 1 July heating degree days 89 85  
Cooling Degree Days 0 1  
Month to date cooling degree days 64 44  
Year to date cooling degree days 623 557  
Moisture  
Dew Point 40 °F    
Average Humidity 67    
Maximum Humidity 92    
Minimum Humidity 42    
Precipitation  
Precipitation 0.00 in 0.12 in 1.77 in (1989)
Month to date precipitation 1.41 2.28  
Year to date precipitation 30.45 26.87  
Snow  
Snow 0.00 in 0.00 in 0.00 in (2002)
Month to date snowfall 0.0 0.0  
Since 1 July snowfall 0.0 0.0  
Since 1 September snowfall 0.0 0.0  
Snow Depth 0.00 in    
Sea Level Pressure  
Sea Level Pressure 30.29 in    
Wind  
Wind Speed 4 mph (East)    
Max Wind Speed 14 mph    
Max Gust Speed 19 mph    
Visibility 10 miles    
Events Fog    
T = Trace of Precipitation, MM = Missing Value Source: NWS Daily Summary

Daily Weather History Graph

Daily Weather History Graph

Search for Another Location

Airport or City:

Trip Planner

Search our weather history database for the weather conditions in past years. The results will help you decide how hot, cold, wet, or windy it might be!

Date:

Astronomy

Sep. 19, 2014 Rise Set
Actual Time 6:48 AM EDT 7:07 PM EDT
Civil Twilight 6:19 AM EDT 7:35 PM EDT
Nautical Twilight 5:46 AM EDT 8:09 PM EDT
Astronomical Twilight 5:12 AM EDT 8:43 PM EDT
Moon 2:26 AM EDT (9/19) 4:39 PM EDT (9/19)
Length of Visible Light 13h 15m
Length of Day
12h 18m
Waning Crescent, 18% of the Moon is Illuminated
Sep 19
Waning Crescent
Sep 24
New
Oct 1
First Quarter
Oct 8
Full
Oct 15
Last Quarter

Hourly Weather History & Observations

Time (EDT) Temp. Windchill Dew Point Humidity Pressure Visibility Wind Dir Wind Speed Gust Speed Precip Events Conditions
12:54 AM 42.1 °F - 39.0 °F 89% 30.24 in 10.0 mi Calm Calm - N/A   Clear
1:54 AM 41.0 °F 39.0 °F 37.9 °F 89% 30.26 in 10.0 mi East 3.5 mph - N/A   Clear
2:54 AM 41.0 °F - 37.9 °F 89% 30.27 in 10.0 mi Calm Calm - N/A   Partly Cloudy
3:54 AM 39.0 °F - 36.0 °F 89% 30.29 in 10.0 mi Calm Calm - N/A   Partly Cloudy
4:54 AM 39.0 °F - 36.0 °F 89% 30.31 in 10.0 mi Calm Calm - N/A   Partly Cloudy
5:54 AM 37.9 °F - 35.1 °F 89% 30.32 in 10.0 mi Calm Calm - N/A   Scattered Clouds
6:54 AM 37.9 °F - 35.1 °F 89% 30.34 in 10.0 mi Calm Calm - N/A Fog Patches of Fog
7:54 AM 39.9 °F - 37.0 °F 89% 30.35 in 10.0 mi Calm Calm - N/A   Scattered Clouds
8:54 AM 45.0 °F 42.6 °F 39.0 °F 80% 30.36 in 10.0 mi East 4.6 mph - N/A   Scattered Clouds
9:54 AM 48.9 °F - 39.0 °F 69% 30.35 in 10.0 mi Calm Calm - N/A   Scattered Clouds
10:54 AM 53.1 °F - 41.0 °F 64% 30.36 in 10.0 mi Calm Calm - N/A   Scattered Clouds
11:54 AM 55.0 °F - 37.0 °F 51% 30.37 in 10.0 mi North - - N/A   Scattered Clouds
12:54 PM 57.9 °F - 39.0 °F 49% 30.36 in 10.0 mi Calm Calm - N/A   Scattered Clouds
1:54 PM 57.9 °F - 37.9 °F 47% 30.33 in 10.0 mi West 4.6 mph - N/A   Partly Cloudy
2:54 PM 61.0 °F - 37.9 °F 42% 30.31 in 10.0 mi Calm Calm - N/A   Partly Cloudy
3:54 PM 62.1 °F - 39.0 °F 43% 30.28 in 10.0 mi East 8.1 mph - N/A   Partly Cloudy
4:54 PM 63.0 °F - 41.0 °F 45% 30.26 in 10.0 mi East 4.6 mph - N/A   Partly Cloudy
5:54 PM 61.0 °F - 43.0 °F 52% 30.25 in 10.0 mi ENE 6.9 mph - N/A   Scattered Clouds
6:54 PM 57.0 °F - 44.1 °F 62% 30.26 in 10.0 mi NE 4.6 mph - N/A   Scattered Clouds
7:54 PM 52.0 °F - 45.0 °F 77% 30.24 in 10.0 mi East 3.5 mph - N/A   Scattered Clouds
8:54 PM 50.0 °F - 44.1 °F 80% 30.24 in 10.0 mi East 6.9 mph - N/A   Mostly Cloudy
9:54 PM 48.9 °F - 44.1 °F 83% 30.22 in 10.0 mi East 8.1 mph - N/A   Mostly Cloudy
10:54 PM 48.0 °F - 44.1 °F 86% 30.19 in 10.0 mi East 8.1 mph - N/A   Scattered Clouds
11:54 PM 51.1 °F - 45.0 °F 80% 30.17 in 10.0 mi East 8.1 mph - N/A   Mostly Cloudy